Regional Weather Roundup
Issued by NWS

Home | Current Version | Previous Version | Text Only | Print | Product List | Glossary Off
Versions: 1 2 3 4 5 6 7 8 9 10 11 12 13 14 15 16 17 18 19 20 21 22 23 24 25 26 27 28 29 30 31 32 33 34 35 36 37 38 39 40 41 42 43 44 45 46 47 48 49 50

000
ASUS43 KMPX 230101
RWRMN
WEATHER ROUNDUP FOR MINNESOTA
NATIONAL WEATHER SERVICE TWIN CITIES/CHANHASSEN MN
700 PM CST MON DEC 22 2014


NOTE: "FAIR" INDICATES FEW OR NO CLOUDS BELOW 12,000 FEET WITH NO
SIGNIFICANT WEATHER AND/OR OBSTRUCTIONS TO VISIBILITY. N/A MEANS
CURRENT SKY AND/OR WEATHER CONDITIONS ARE NOT AVAILABLE.

MNZ060>063-068>070-230200-
   Twin Cities Metro

CITY           SKY/WX    TMP DP  RH WIND       PRES   REMARKS
TWIN CITIES    LGT RAIN  37  34  89 E12       29.60S FOG
ST PAUL        LGT RAIN  37  35  92 E7        29.62S FOG
CRYSTAL        LGT RAIN  38  35  89 E7        29.60S FOG
LAKEVILLE      RAIN      34  34 100 E9        29.59S WCI  26
EDEN PRAIRIE   CLOUDY    37  34  89 E9        29.58S FOG
SOUTH ST PAUL  CLOUDY    37  36  93 E5        29.61R FOG
LAKE ELMO      CLOUDY    36  36 100 E8        29.63R FOG
$$
MNZ001>005-007-008-013>017-022>024-027-028-230200-
   Northwest Minnesota

CITY           SKY/WX    TMP DP  RH WIND       PRES   REMARKS
BEMIDJI        CLOUDY    33  32  97 E7        29.66R WCI  27
HALLOCK        LGT RAIN  36  34  93 NE7       29.70R
ROSEAU         DRIZZLE   36  30  80 NE7       29.70R
WARROAD        LGT RAIN  34  30  86 NE8       29.71R WCI  27
THIEF RVR FALL CLOUDY    36  34  93 E7        29.67R
CROOKSTON      CLOUDY    36  36 100 E6        29.66R FOG
FOSSTON        CLOUDY    34  34 100 E5        29.65R WCI  30
DETROIT LAKES  LGT RAIN  34  34 100 E7        29.62R WCI  28
MOORHEAD       DRIZZLE   37  37 100 E7        29.62R
PARK RAPIDS    LGT SNOW  34  32  92 E8        29.63R FOG     WCI  27
MAHNOMEN       LGT RAIN  34  32  93 E6        29.62R WCI  29
$$
MNZ006-009>011-018-025>026-230200-
   North Central Minnesota

CITY           SKY/WX    TMP DP  RH WIND       PRES   REMARKS
BAUDETTE       CLOUDY    34  32  92 E6        29.70R WCI  29
FLAG ISLAND    RAIN      34  32  93 E6        29.72R WCI  29
INTL FALLS     LGT SNOW  33  32  96 E6        29.72R FOG     WCI  28
WASKISH        RAIN      36  34  93 CALM      29.69R
BIG FORK       LGT SNOW  34  32  93 CALM      29.70R
LONGVILLE      LGT SNOW  34  32  93 E3        29.66R
GRAND RAPIDS   CLOUDY    34  30  86 SE7       29.68R WCI  28
CRANE LAKE     LGT RAIN  34  32  93 CALM      29.75R
ORR            CLOUDY    34  30  86 CALM      29.70R
COOK           CLOUDY    34  34 100 CALM      29.72R FOG
WALKER         LGT SNOW  32  32 100 E6        29.64S WCI  26
$$
MNZ012-019>021-037-230200-
   Northeast Minnesota

CITY           SKY/WX    TMP DP  RH WIND       PRES   REMARKS
DULUTH         CLOUDY    35  33  92 E12       29.71R FOG     WCI  27
ELY            CLOUDY    34  32  93 E3        29.73R FOG
HIBBING        CLOUDY    35  32  88 SE10      29.70R FOG     WCI  27
EVELETH        CLOUDY    34  34 100 SE5       29.72R FOG     WCI  30
DULUTH HARBOR  CLOUDY    36  34  93 NE13      29.75R
TWO HARBORS    CLOUDY    37  34  87 NE6       29.72R FOG
SILVER BAY     CLOUDY    36  34  93 NE5       29.74R FOG
GRAND MARAIS     N/A     38  35  89 E7        29.81R
G MARAIS ARPRT FOG       30  28  93 SE3       29.76S VSB<1/4
$$
MNZ029>031-032-039>041-046>048-054>057-064-230200-
   West Central Minnesota

CITY           SKY/WX    TMP DP  RH WIND       PRES   REMARKS
FERGUS FALLS   DRIZZLE   36  34  93 E7        29.61R
WHEATON        LGT RAIN  32  32 100 E13       29.58R WCI  22
MORRIS         MIX PCPN  36  34  93 E10       29.55R
ALEXANDRIA     CLOUDY    34  32  92 E13       29.59R FOG     WCI  25
ELBOW LAKE     FLURRIES  33  33  98 E13       29.57R WCI  24
WADENA         LGT SNOW  34  32  93 E7        29.61R WCI  28
GLENWOOD       LGT SNOW  34  34 100 E13G18    29.58R WCI  25
APPLETON       LGT RAIN  36  34  93 E13       29.54R
BENSON         MIX PCPN  34  32  93 SE9       29.56R WCI  26
ORTONVILLE     DRIZZLE   34  32  93 E12       29.53R WCI  25
MADISON        DRIZZLE   37  37 100 E13       29.53R
WILLMAR        MIX PCPN  36  34  93 E13       29.57R
$$
MNZ033>034-036-042>043-049>051-058-059-230200-
   Central Minnesota

CITY           SKY/WX    TMP DP  RH WIND       PRES   REMARKS
ST CLOUD       CLOUDY    36  33  89 E8        29.61R FOG
SAUK CENTRE    LGT SNOW  33  32  98 E10       29.59R WCI  24
PAYNESVILLE    DRIZZLE   31  32 100 NE9       29.59R WCI  23
AITKIN         MIX PCPN  36  30  80 E5        29.65R
PINE RIVER     LGT RAIN  34  34 100 E7        29.68S WCI  28
BRAINERD       LGT SNOW  33  32  96 VRB6      29.65R FOG     WCI  28
STAPLES        LGT SNOW  32  32 100 E6        29.62R WCI  26
LONG PRAIRIE   LGT SNOW  32  32 100 E12       29.61R WCI  23
LITTLE FALLS   MIX PCPN  32  32 100 E8        29.62S WCI  25
LITCHFIELD     DRIZZLE   36  36 100 E9        29.58S
BUFFALO        DRIZZLE   35  33  94 E9        29.61S WCI  28
MAPLE LAKE     CLOUDY    36  36  99 E8        29.61R FOG
$$
MNZ037-044-045-052-053-230200-
   East Central Minnesota

CITY           SKY/WX    TMP DP  RH WIND       PRES   REMARKS
PRINCETON      DRIZZLE   36  36 100 E7        29.63S
MORA           CLOUDY    32  32 100 E6        29.67R WCI  26
CAMBRIDGE      DRIZZLE   37  30  75 E7        29.62S
RUSH CITY      CLOUDY    35  33  94 NE5       29.66R WCI  31
MOOSE LAKE     CLOUDY    34  32  93 E5        29.67S FOG     WCI  30
HINCKLEY       CLOUDY    36  34  93 E8        29.67R FOG
CLOQUET        CLOUDY    34  34 100 E5        29.70R FOG     WCI  30
MCGREGOR       CLOUDY    34  34 100 E7        29.68R WCI  28
$$
MNZ071>073-080-081-089-090-097-098-230200-
   Southwest Minnesota

CITY           SKY/WX    TMP DP  RH WIND       PRES   REMARKS
MONTEVIDEO     RAIN      34  34 100 SE12      29.55R WCI  25
GRANITE FALLS  LGT RAIN  35  34  96 E7        29.55R WCI  29
CANBY          DRIZZLE   36  36  99 E13       29.52R
MARSHALL       CLOUDY    36  32  87 SE16      29.51R
REDWOOD FALLS  MIX PCPN  35  34  96 E9        29.54R FOG     WCI  28
OLIVIA         CLOUDY    34  32  93 E10G16    29.55R FOG     WCI  26
PIPESTONE      LGT SNOW  37  36  93 SE9       29.46R
WINDOM         LGT SNOW  34  34 100 E8        29.51R WCI  27
WORTHINGTON    CLOUDY    36 N/A N/A E13       29.48R
JACKSON        MIX PCPN  34  32  93 E10       29.50R WCI  26
TRACY          DRIZZLE   35  34  96 E9        29.51R WCI  28
SLAYTON        LGT RAIN  34  34 100 E10       29.49R WCI  26
$$
MNZ065>067-074>077-082>085-091>093-230200-
   South Central Minnesota

CITY           SKY/WX    TMP DP  RH WIND       PRES   REMARKS
MANKATO        CLOUDY    36  30  80 E10       29.55S
NEW ULM        DRIZZLE   36  36 100 E10       29.55R
FAIRMONT       CLOUDY    36  30  80 E9        29.51S
GLENCOE        CLOUDY    36  36 100 E12       29.57S FOG
FARIBAULT      DRIZZLE   36  34  93 E7        29.57S
OWATONNA       DRIZZLE   36  34  93 E10       29.56S
WASECA         DRIZZLE   34  32  93 E14       29.57R WCI  24
ALBERT LEA     LGT SNOW  34  34 100 E13       29.53S WCI  25
$$
MNZ078>079-086>088-094>096-230200-
   Southeast Minnesota

CITY           SKY/WX    TMP DP  RH WIND       PRES   REMARKS
ROCHESTER      MIX PCPN  34  32  92 E13       29.57S FOG     WCI  25
RED WING       DRIZZLE   37  36  93 E9        29.61R
STANTON        DRIZZLE   37  34  89 E9        29.58S
DODGE CENTER   LGT SNOW  34  34 100 E13       29.56R WCI  25
WINONA         CLOUDY    36  34  93 SE8G16    29.63R FOG
AUSTIN         DRIZZLE   34  34 100 E13       29.54S WCI  25
PRESTON        LGT SNOW  32  32  99 E10G16    29.57S WCI  24
$$
ABBREVIATIONS USED IN REMARKS
   TC - TEMPERATURES IN CELSIUS
  WCI - WIND CHILL INDEX
   HX - HEAT INDEX
  VSB - VISIBILITY
$$


USA.gov is the U.S. government's official web portal to all federal, state and local government web resources and services.